OPS 4682 DEB, 18538

Orbit data source: Space-Track

OPS 4682 DEB, 18538 is space debris in LEO originally from a launch on Sat, 03 Apr 1965 UTC launched from the Air Force Western Test Range (AFWTR). Debris objects in space refer to the collection of defunct objects orbiting the Earth. Examples of debris include non-operational satellites, rocket bodies, and fragments generated from explosions, collisions, or faulty payload assembly.

Loading next visibility...
Identifier
18538, 1965-027AF
Orbit
LEO
Country
Flag of USUS
Related business
Manufacturer
Unknown
Mission
Spacecraft
Bus & Motor
Unknown
Mass
Unknown
Launch date (UTC)
1965-04-03 (61 years ago)
Launch vehicle
Unknown
Launch site
Air Force Western Test Range (AFWTR)
Object type
Payload
Rocket body
Debris
Shape & HBR
Unknown shape, 0.1 m
Radar Cross Section
Medium (>0.1 m² and <1 m²)

Expand to show TLE details & history
Last TLE update: 20 hours ago

TLE from 20 hours ago
0 OPS 4682 DEB
1 18538U 65027AF  26207.40499340 -.00000035  00000-0 -15245-3 0  9995
2 18538  90.2393   4.5477 0030750  65.8070 322.8732 12.95325355500744
Epoch: 2026-07-26T09:43Z
TLE epoch observation values (Epoch: 2026-07-26T09:43:11.429Z)
Latitude
28.50689°
Longitude
-85.48263°
Altitude
1,265.221 km
Speed
7.234 km/s
True Right ascension
00h 17m 40s
True Declination
28° 22' 21"
Sunlit
Object was in daylight at epoch
Visualization orbit readout
Latitude
Unknown
Longitude
Unknown
Altitude
Unknown
Speed
Unknown
Apparent Right ascension
Unknown
Apparent Declination
Unknown
Sunlit
N/A
Visualization observer readout
Local Sidereal Time
19:00:17
Azimuth
Unknown
Elevation
Unknown
Doppler factor
Unknown
Orbital elements
Apogee altitude
1,301.132 km
Perigee altitude
1,254.05 km
Semi-major axis
7,655.728 km
Eccentricity
0.00308
Inclination
90.2393°
RAAN
4.5477°
Arg. of periapsis
65.807°
True anomaly
322.65986°
Mean anomaly
322.8732°
Eccentric anomaly
322.7666°
Mean motion
3.24014 °/min
Orbital period
111.11 mins
BSTAR
-0.00015245
Loading maneuver chart data...
Computing Atmospheric mass density...
Loading historical data...
Loading historical data...
Loading historical data...
Loading historical data...
Loading historical data...
Loading historical data...
Loading historical data...

Documentation

Showing up to 5 results
|